Latest Weather Observations for Lake Macquarie - Cooranbong

IDN60901

Issued at 7:11 pm EST Saturday 29 August 2015 (issued every 10 minutes, with the page automatically refreshed every 10 minutes)

About weather observations | Map of Sydney area stations | Latest observations for Sydney area | Other Formats
Station Details ID: 061412 Name: LAKE MACQUARIE AWS Lat: -33.09 Lon: 151.46 Height: 6.0 m
Data from the previous 72 hours. | See also: Recent months at Lake Macquarie - Cooranbong
Date/Time
EST
Tmp

°C
App
Tmp
°C
Dew
Point
°C
Rel
Hum
%
Delta-T

°C
Wind Press
QNH
hPa
Press
MSL
hPa
Rain
since
9 am
mm
Dir
 
Spd
km/h
Gust
km/h
Spd
kts
Gust
kts
29/07:00pm 11.3 10.9 8.3 82 1.5 CALM 0 0 0 0 1019.3 1019.3 0.0
29/06:30pm 12.3 12.0 8.8 79 1.7 CALM 0 0 0 0 1018.8 1018.8 0.0
29/06:00pm 13.8 13.5 8.8 72 2.5 CALM 0 0 0 0 1018.5 1018.5 0.0
29/05:30pm 15.7 15.5 8.9 64 3.5 CALM 0 4 0 2 1018.2 1018.2 0.0
29/05:00pm 17.0 15.2 7.9 55 4.6 ESE 7 11 4 6 1018.0 1018.0 0.0
29/04:30pm 17.9 15.9 7.0 49 5.4 SE 7 15 4 8 1017.7 1017.7 0.0
29/04:00pm 20.7 18.0 2.5 30 8.5 W 6 9 3 5 1017.6 1017.6 0.0
29/03:30pm 20.8 17.4 2.1 29 8.7 W 9 20 5 11 1017.7 1017.7 0.0
29/03:00pm 20.6 16.4 1.5 28 8.7 W 13 26 7 14 1017.9 1017.9 0.0
29/02:30pm 20.3 17.6 3.9 34 7.8 W 7 13 4 7 1018.1 1018.1 0.0
29/02:00pm 19.9 17.7 5.5 39 7.1 W 6 11 3 6 1018.5 1018.5 0.0
29/01:30pm 19.8 16.6 5.1 38 7.2 NNW 11 19 6 10 1018.9 1018.9 0.0
29/01:00pm 19.6 16.9 5.6 40 6.9 WNW 9 20 5 11 1019.3 1019.3 0.0
29/12:30pm 18.9 16.4 6.4 44 6.2 NW 9 19 5 10 1019.8 1019.8 0.0
29/12:00pm 18.3 16.1 7.7 50 5.4 NNW 9 15 5 8 1020.4 1020.4 0.0
29/11:30am 17.4 14.3 7.2 51 5.1 N 13 20 7 11 1021.1 1021.1 0.0
29/11:00am 17.9 15.6 7.6 51 5.2 NNW 9 17 5 9 1021.7 1021.7 0.0
29/10:30am 17.5 15.2 7.3 51 5.1 WNW 9 19 5 10 1022.1 1022.1 0.0
29/10:00am 16.2 14.3 7.7 57 4.2 N 7 13 4 7 1022.4 1022.4 0.0
29/09:30am 16.0 14.8 8.0 59 4.0 NNE 4 6 2 3 1022.8 1022.8 0.0
29/09:00am 13.7 13.2 7.7 67 2.9 CALM 0 0 0 0 1023.1 1023.1 0.0
29/08:30am 12.4 12.2 8.9 79 1.8 CALM 0 2 0 1 1023.3 1023.3 0.0
29/08:00am 9.5 9.2 8.6 94 0.4 CALM 0 0 0 0 1023.3 1023.3 0.0
29/07:30am 7.0 6.2 6.6 97 0.2 CALM 0 0 0 0 1023.2 1023.2 0.0
29/07:00am 4.5 3.1 3.8 95 0.3 CALM 0 0 0 0 1023.2 1023.2 0.0
29/06:30am 4.5 3.1 3.8 95 0.3 CALM 0 0 0 0 1023.0 1023.0 0.0
29/06:00am 4.6 3.3 3.9 95 0.3 CALM 0 0 0 0 1022.8 1022.8 0.0
29/05:30am 4.8 3.5 4.1 95 0.3 CALM 0 0 0 0 1022.7 1022.7 0.0
29/05:00am 4.8 3.5 4.1 95 0.3 CALM 0 0 0 0 1022.5 1022.5 0.0
29/04:30am 5.5 4.3 4.8 95 0.3 CALM 0 0 0 0 1022.3 1022.3 0.0
29/04:00am 5.8 4.7 5.1 95 0.3 CALM 0 0 0 0 1022.1 1022.1 0.0
29/03:30am 6.2 5.1 5.3 94 0.4 CALM 0 0 0 0 1022.1 1022.1 0.0
29/03:00am 6.2 5.1 5.3 94 0.4 CALM 0 0 0 0 1022.3 1022.3 0.0
29/02:30am 6.6 5.6 5.7 94 0.4 CALM 0 0 0 0 1022.5 1022.5 0.0
29/02:00am 6.9 6.0 6.0 94 0.4 CALM 0 0 0 0 1022.8 1022.8 0.0
29/01:30am 7.5 6.7 6.6 94 0.4 CALM 0 0 0 0 1022.8 1022.8 0.0
29/01:00am 7.8 7.1 6.9 94 0.4 CALM 0 0 0 0 1022.9 1022.9 0.0
29/12:30am 8.1 7.4 6.9 92 0.6 CALM 0 0 0 0 1023.0 1023.0 0.0
29/12:00am 8.5 7.9 7.4 93 0.5 CALM 0 0 0 0 1023.0 1023.0 0.0
 
Date/Time
EST
Tmp

°C
App
Tmp
°C
Dew
Point
°C
Rel
Hum
%
Delta-T

°C
Wind Press
QNH
hPa
Press
MSL
hPa
Rain
since
9 am
mm
Dir
 
Spd
km/h
Gust
km/h
Spd
kts
Gust
kts
28/11:30pm 9.1 8.6 8.0 93 0.5 CALM 0 0 0 0 1023.1 1023.1 0.0
28/11:00pm 9.5 9.1 8.3 92 0.6 CALM 0 0 0 0 1023.1 1023.1 0.0
28/10:30pm 10.2 9.9 8.6 90 0.8 CALM 0 0 0 0 1023.0 1023.0 0.0
28/10:00pm 10.8 10.6 9.1 89 0.8 CALM 0 0 0 0 1023.1 1023.1 0.0
28/09:30pm 11.2 11.1 9.5 89 0.9 CALM 0 0 0 0 1023.1 1023.1 0.0
28/09:00pm 11.4 11.4 9.7 89 0.9 CALM 0 0 0 0 1022.9 1022.9 0.0
28/08:30pm 11.5 11.4 9.4 87 1.1 CALM 0 0 0 0 1022.7 1022.7 0.0
28/08:00pm 12.2 12.2 9.8 85 1.2 CALM 0 2 0 1 1022.3 1022.3 0.0
28/07:30pm 12.8 12.1 10.2 84 1.3 N 4 4 2 2 1022.0 1022.0 0.0
28/07:00pm 13.4 13.5 10.2 81 1.6 CALM 0 0 0 0 1021.7 1021.7 0.0
28/06:30pm 14.1 14.0 9.5 74 2.4 CALM 0 0 0 0 1021.3 1021.3 0.0
28/06:00pm 14.8 14.6 9.2 69 2.9 CALM 0 0 0 0 1020.9 1020.9 0.0
28/05:30pm 15.5 15.0 9.2 66 3.2 S 2 4 1 2 1020.7 1020.7 0.0
28/05:00pm 16.3 15.8 8.0 58 4.2 CALM 0 0 0 0 1020.4 1020.4 0.0
28/04:30pm 17.8 16.4 5.4 44 6.0 WSW 2 4 1 2 1020.1 1020.1 0.0
28/04:00pm 19.5 17.3 5.2 39 7.0 W 6 11 3 6 1019.8 1019.8 0.0
28/03:30pm 18.7 16.3 4.5 39 6.8 W 6 11 3 6 1019.6 1019.6 0.0
28/03:00pm 19.2 16.7 3.8 36 7.3 WSW 6 11 3 6 1019.4 1019.4 0.0
28/02:30pm 19.1 17.0 5.6 41 6.6 WSW 6 9 3 5 1019.3 1019.3 0.0
28/02:00pm 19.2 16.2 4.2 37 7.1 W 9 20 5 11 1019.2 1019.2 0.0
28/01:30pm 19.2 16.9 4.9 39 6.9 W 6 9 3 5 1019.2 1019.2 0.0
28/01:00pm 18.6 15.7 4.8 40 6.6 W 9 17 5 9 1019.5 1019.5 0.0
28/12:30pm 19.2 15.5 4.2 37 7.2 W 13 22 7 12 1019.9 1019.9 0.0
28/12:00pm 17.4 13.6 4.0 41 6.3 WSW 13 26 7 14 1020.3 1020.3 0.0
28/11:30am 18.1 14.0 4.3 40 6.5 W 15 26 8 14 1020.5 1020.5 0.0
28/11:00am 17.7 14.9 5.0 43 6.1 W 9 19 5 10 1020.7 1020.7 0.0
28/10:30am 16.8 13.1 4.5 44 5.8 W 13 35 7 19 1020.9 1020.9 0.0
28/10:00am 16.0 12.3 4.4 46 5.4 W 13 26 7 14 1020.7 1020.7 0.0
28/09:30am 15.5 12.3 5.1 50 4.9 NW 11 20 6 11 1020.6 1020.6 0.0
28/09:00am 14.9 11.7 5.1 52 4.6 NW 11 17 6 9 1020.6 1020.6 0.0
28/08:30am 14.1 10.8 4.7 53 4.4 NW 11 26 6 14 1020.5 1020.5 0.0
28/08:00am 13.4 9.8 5.1 57 3.8 NNW 13 26 7 14 1020.2 1020.2 0.0
28/07:30am 12.5 9.3 5.2 61 3.4 NNW 11 24 6 13 1019.8 1019.8 0.0
28/07:00am 11.3 8.9 5.2 66 2.8 NNW 7 19 4 10 1019.6 1019.6 0.0
28/06:30am 11.3 8.5 5.2 66 2.8 NW 9 19 5 10 1019.3 1019.3 0.0
28/06:00am 10.7 8.4 4.6 66 2.7 NW 6 13 3 7 1018.9 1018.9 0.0
28/05:30am 11.2 8.9 4.9 65 2.9 NW 6 9 3 5 1018.6 1018.6 0.0
28/05:00am 11.0 8.7 4.7 65 2.8 NW 6 15 3 8 1018.3 1018.3 0.0
28/04:30am 10.9 8.6 4.8 66 2.8 NW 6 9 3 5 1018.2 1018.2 0.0
28/04:00am 11.6 9.1 5.0 64 3.0 NW 7 15 4 8 1018.1 1018.1 0.0
28/03:30am 10.1 7.6 4.9 70 2.3 NW 7 13 4 7 1018.1 1018.1 0.0
28/03:00am 10.7 8.9 5.3 69 2.5 NNW 4 6 2 3 1018.2 1018.2 0.0
28/02:30am 10.6 8.4 6.4 75 2.0 NNW 7 13 4 7 1018.3 1018.3 0.0
28/02:00am 7.6 6.8 6.5 93 0.5 CALM 0 0 0 0 1018.8 1018.8 0.0
28/01:30am 7.7 6.9 6.5 92 0.5 CALM 0 0 0 0 1019.0 1019.0 0.0
28/01:00am 8.1 7.3 6.7 91 0.6 CALM 0 0 0 0 1019.2 1019.2 0.0
28/12:30am 8.4 7.7 6.9 90 0.7 CALM 0 0 0 0 1019.1 1019.1 0.0
28/12:00am 9.1 8.5 7.2 88 0.9 CALM 0 0 0 0 1019.0 1019.0 0.0
 
Date/Time
EST
Tmp

°C
App
Tmp
°C
Dew
Point
°C
Rel
Hum
%
Delta-T

°C
Wind Press
QNH
hPa
Press
MSL
hPa
Rain
since
9 am
mm
Dir
 
Spd
km/h
Gust
km/h
Spd
kts
Gust
kts
27/11:30pm 9.5 8.9 7.4 87 1.0 CALM 0 0 0 0 1018.8 1018.8 0.0
27/11:00pm 10.1 8.9 7.9 86 1.1 N 4 6 2 3 1018.8 1018.8 0.0
27/10:30pm 10.5 9.6 7.9 84 1.3 NNW 2 6 1 3 1019.0 1019.0 0.0
27/10:00pm 10.3 9.7 7.2 81 1.5 CALM 0 0 0 0 1019.2 1019.2 0.0
27/09:30pm 11.8 11.3 7.7 76 2.0 CALM 0 0 0 0 1019.4 1019.4 0.0
27/09:00pm 12.5 11.7 8.0 74 2.2 N 2 4 1 2 1019.3 1019.3 0.0
27/08:30pm 13.9 12.4 8.3 69 2.8 NNW 6 7 3 4 1019.2 1019.2 0.0
27/08:00pm 13.0 12.1 7.7 70 2.6 WNW 2 6 1 3 1019.1 1019.1 0.0
27/07:30pm 14.6 12.7 7.4 62 3.5 NNW 7 11 4 6 1018.6 1018.6 0.0
27/07:00pm 14.9 13.0 7.5 61 3.7 NNW 7 13 4 7 1018.1 1018.1 0.0
27/06:30pm 15.6 13.1 8.1 61 3.8 NNW 11 19 6 10 1017.8 1017.8 0.0
27/06:00pm 15.7 13.9 8.0 60 3.9 NNW 7 17 4 9 1017.6 1017.6 0.0
27/05:30pm 16.6 14.8 8.1 57 4.3 NNW 7 15 4 8 1017.2 1017.2 0.0
27/05:00pm 17.4 15.2 8.0 54 4.8 NNW 9 19 5 10 1016.8 1016.8 0.0
27/04:30pm 18.1 14.9 8.4 53 5.0 N 15 22 8 12 1016.4 1016.4 0.0
27/04:00pm 18.9 16.5 8.6 51 5.3 N 11 19 6 10 1016.4 1016.4 0.0
27/03:30pm 19.6 16.8 8.6 49 5.7 NW 13 20 7 11 1016.4 1016.4 0.0
27/03:00pm 19.3 16.1 8.3 49 5.7 NW 15 28 8 15 1016.6 1016.6 0.0
27/02:30pm 19.5 18.0 9.1 51 5.5 NW 7 13 4 7 1017.0 1017.0 0.0
27/02:00pm 19.4 16.9 8.4 49 5.7 NW 11 19 6 10 1017.0 1017.0 0.0
27/01:30pm 18.1 15.6 8.4 53 5.0 NW 11 19 6 10 1017.3 1017.3 0.0
27/01:00pm 17.8 16.0 9.4 58 4.4 NW 9 20 5 11 1017.5 1017.5 0.0
27/12:30pm 16.5 14.7 9.4 63 3.7 NNW 9 15 5 8 1018.0 1018.0 0.0
27/12:00pm 16.7 15.3 9.4 62 3.8 WNW 7 17 4 9 1018.3 1018.3 0.0
27/11:30am 16.9 16.0 9.3 61 3.9 WNW 4 13 2 7 1018.5 1018.5 0.0
27/11:00am 17.0 15.6 9.7 62 3.8 NW 7 15 4 8 1019.0 1019.0 0.0
27/10:30am 16.5 16.0 10.8 69 3.0 NNW 4 7 2 4 1019.4 1019.4 0.0
27/10:00am 16.3 15.4 10.8 70 2.9 NW 6 15 3 8 1019.6 1019.6 0.0
27/09:30am 16.3 16.0 11.5 73 2.6 NNW 4 11 2 6 1020.1 1020.1 0.0
27/09:00am 15.3 15.1 11.9 80 1.8 WNW 4 7 2 4 1020.4 1020.4 0.2
27/08:30am 14.3 15.4 13.5 95 0.4 CALM 0 0 0 0 1020.2 1020.2 0.2
27/08:00am 13.4 13.6 12.9 97 0.3 NNE 4 6 2 3 1020.5 1020.5 0.2
27/07:30am 12.4 13.0 11.9 97 0.3 CALM 0 0 0 0 1020.0 1020.0 0.2
27/07:00am 12.2 12.4 11.7 97 0.3 N 2 6 1 3 1020.1 1020.1 0.2
27/06:30am 11.8 11.8 11.3 97 0.3 NNW 2 6 1 3 1020.1 1020.1 0.2
27/06:00am 11.3 11.6 10.8 97 0.3 CALM 0 0 0 0 1019.8 1019.8 0.2
27/05:30am 10.7 10.8 10.1 96 0.3 CALM 0 4 0 2 1019.8 1019.8 0.2
27/05:00am 11.1 10.5 10.5 96 0.3 NNW 4 6 2 3 1019.9 1019.9 0.2
27/04:30am 11.0 11.1 10.2 95 0.4 CALM 0 0 0 0 1019.5 1019.5 0.2
27/04:00am 11.6 11.5 10.8 95 0.4 NNW 2 2 1 1 1019.1 1019.1 0.2
27/03:30am 12.4 11.8 11.8 96 0.3 NW 6 6 3 3 1019.4 1019.4 0.2
27/03:00am 12.7 12.9 11.9 95 0.4 NW 2 2 1 1 1019.3 1019.3 0.2
27/02:30am 13.3 13.7 12.5 95 0.4 NW 2 4 1 2 1019.6 1019.6 0.2
27/02:00am 13.7 14.2 12.8 94 0.5 NNW 2 6 1 3 1019.4 1019.4 0.2
27/01:30am 14.3 15.3 13.3 94 0.6 CALM 0 0 0 0 1019.4 1019.4 0.2
27/01:00am 14.5 14.8 13.5 94 0.6 N 4 4 2 2 1019.9 1019.9 0.2
27/12:30am 14.7 15.9 13.7 94 0.6 CALM 0 0 0 0 1020.4 1020.4 0.2
27/12:00am 14.7 15.9 13.7 94 0.6 CALM 0 2 0 1 1020.6 1020.6 0.2
 
Date/Time
EST
Tmp

°C
App
Tmp
°C
Dew
Point
°C
Rel
Hum
%
Delta-T

°C
Wind Press
QNH
hPa
Press
MSL
hPa
Rain
since
9 am
mm
Dir
 
Spd
km/h
Gust
km/h
Spd
kts
Gust
kts
26/11:30pm 14.8 15.2 13.8 94 0.6 NNW 4 6 2 3 1020.7 1020.7 0.2
26/11:00pm 15.0 15.4 13.7 92 0.7 NW 4 6 2 3 1020.7 1020.7 0.0
26/10:30pm 15.1 16.1 13.3 89 1.0 CALM 0 2 0 1 1021.1 1021.1 0.0
26/10:00pm 15.0 15.7 13.4 90 0.9 NW 2 6 1 3 1021.2 1021.2 0.0
26/09:30pm 15.2 16.3 13.6 90 0.9 CALM 0 0 0 0 1021.0 1021.0 0.0
26/09:00pm 15.1 16.2 13.6 91 0.8 CALM 0 0 0 0 1021.1 1021.1 0.0
26/08:30pm 15.1 16.2 13.6 91 0.8 CALM 0 0 0 0 1021.0 1021.0 0.0
26/08:00pm 15.2 16.3 13.6 90 0.9 CALM 0 0 0 0 1020.9 1020.9 0.0
26/07:30pm 15.1 16.1 13.1 88 1.1 CALM 0 0 0 0 1020.6 1020.6 0.0

Latest Capital City Observations: Canberra | Sydney | Melbourne | Brisbane | Adelaide | Perth | Hobart | Darwin

Other Formats:

Comma delimited format used in spreadsheet applications
http://www.bom.gov.au/fwo/IDN60901/IDN60901.95767.axf

JavaScript Object Notation format (JSON) in row-major order
http://www.bom.gov.au/fwo/IDN60901/IDN60901.95767.json